Location: Central Coast
(33.3208°S, 151.2336°E)
Time: 18:51:13
(UTC+11:00)

Tiangong 2 - Pass Details

Date: 15 October 2017
Orbit: 388 x 391 km, 42.8° (Epoch: 23 October)

Event Time Altitude Azimuth Distance (km) Brightness Sun altitude
Rises 19:52:15 0° 238° (WSW) 2,299 6.8 -9.8°
Reaches altitude 10° 19:54:22 10° 233° (SW) 1,438 5.2 -10.2°
Maximum altitude 19:57:34 54° 153° (SSE) 483 1.5 -10.9°
Enters shadow 19:59:42 18° 80° (E) 1,030 2.6 -11.3°
